{"data":{"norad_id":59439,"epoch":"2026-09-21T21:47:14.698464Z","epoch_age_seconds":44086,"freshness":"FRESH","line1":"1 59439U 24065U   26264.90780901  .00003432  00000+0  11272-3 0  9998","line2":"2 59439  53.1592  87.2545 0000829 112.3575 247.7516 15.34377413139015","mean_motion":15.34377413,"eccentricity":8.29e-5,"inclination_deg":53.1592,"raan_deg":87.2545,"arg_perigee_deg":112.3575,"mean_anomaly_deg":247.7516,"bstar":0.00011272,"rev_number":13901,"period_min":93.849139579325,"perigee_km":462.2032631333,"apogee_km":463.33748557597,"semimajor_km":6840.9073743546,"source":"CELESTRAK","updated_at":"2026-09-22T09:00:48.942473Z"}}